Regional Weather Roundup
Issued by NWS

Home | Current Version | Previous Version | Graphics & Text | Print | Product List | Glossary On
Versions: 1 2 3 4 5 6 7 8 9 10 11 12 13 14 15 16 17 18 19 20 21 22 23 24 25 26 27 28 29 30 31 32 33 34 35 36 37 38 39 40 41 42 43 44 45 46 47 48 49 50
000
ASUS43 KOAX 020310
RWRNE

WEATHER ROUNDUP FOR NEBRASKA
NATIONAL WEATHER SERVICE OMAHA NE
1000 PM CDT SAT AUG 01 2015

NOTES: SATELLITE DATA IS BEING USED TO AUGMENT CLOUD COVER ABOVE
       12000 FEET.
       "FAIR" INDICATES FEW OR NO CLOUDS BELOW 12,000 FEET WITH NO
       SIGNIFICANT WEATHER AND/OR OBSTRUCTIONS TO VISIBILITY.

  * THESE STATIONS DO NOT REPORT WEATHER SUCH AS RAIN...SNOW OR FOG.

NEZ001>004-019>022-054>056-020400-
NEBRASKA PANHANDLE

CITY           SKY/WX    TMP DP  RH WIND       PRES   REMARKS
SCOTTSBLUFF    PTCLDY    71  58  63 MISG      30.02R
ALLIANCE       CLEAR     69  61  75 S9        30.00R
CHADRON        CLEAR     79  60  52 SE13      29.94R
KIMBALL        PTCLDY    68  54  62 SE8       30.08S
SIDNEY         PTCLDY    73  54  51 SE17      30.07R
$$

NEZ057>060-069>072-079>082-020400-
SOUTHWEST NEBRASKA

CITY           SKY/WX    TMP DP  RH WIND       PRES   REMARKS
NORTH PLATTE   CLOUDY    71  64  78 SE8       29.94F
IMPERIAL       CLOUDY    79  48  33 NW13      30.07S
LEXINGTON      CLOUDY    75  66  74 S5        29.96S
MCCOOK         PTCLDY    78  56  46 SW6       29.98R
OGALLALA       CLOUDY    73  56  55 S6        29.98F
$$

NEZ005>010-023>029-035>040-094-020400-
NORTH CENTRAL NEBRASKA

CITY           SKY/WX    TMP DP  RH WIND       PRES   REMARKS
VALENTINE      CLEAR     70  61  73 SW9       29.94R
AINSWORTH      PTCLDY    71  62  72 SW9       29.96R
BROKEN BOW     MOCLDY    73  62  68 CALM      29.94F
O`NEILL        MOCLDY    71  63  74 S8        29.92R
ORD            PTCLDY    68  64  87 CALM      29.92R
THEDFORD       PTCLDY    71  63  75 CALM      29.99R
$$

NEZ041-046>049-061>064-073>077-083>087-020400-
SOUTH CENTRAL NEBRASKA

CITY           SKY/WX    TMP DP  RH WIND       PRES   REMARKS
GRAND ISLAND   CLOUDY    73  68  84 S6        29.94R
AURORA         CLOUDY    75  70  83 S5        29.94R
HASTINGS       CLOUDY    78  69  73 SE8       29.95R
HEBRON         PTCLDY    75  69  80 CALM      29.93R
HOLDREGE       MOCLDY    73  65  76 S5        29.96R
KEARNEY *      CLOUDY    73  64  73 S5        29.95R
YORK           CLOUDY    73  68  83 CALM      29.94R
$$

NEZ011>018-030>034-042>045-020400-
NORTHEAST NEBRASKA

CITY           SKY/WX    TMP DP  RH WIND       PRES   REMARKS
NORFOLK        PTCLDY    69  65  86 S3        29.91R
ALBION         CLEAR     69  63  81 CALM      29.93R
BLAIR          CLEAR     72  67  82 S5        29.91S
COLUMBUS *     PTCLDY    66  61  82 CALM      29.92R
FREMONT        CLEAR     74  65  74 SE3       29.92R
TEKAMAH        CLEAR     71  69  93 S5        29.89R
WAYNE          CLEAR     69  66  89 SW6       29.90S
$$

NEZ050>053-065>068-078-088>093-020400-
SOUTHEAST NEBRASKA

CITY           SKY/WX    TMP DP  RH WIND       PRES   REMARKS
LINCOLN        MOCLDY    77  63  61 S5        29.92R
OMAHA EPPLEY   PTCLDY    76  71  85 SE8       29.90R
BEATRICE       CLOUDY    78  73  86 E3        29.93R
FALLS CITY     MOCLDY    78  74  87 SE3       29.92R
NEBRASKA CITY  MOCLDY    75  69  80 S5        29.93R
PLATTSMOUTH    PTCLDY    75  72  92 SE5       29.92R
$$

NEZ044-045-051>053-067-020400-
OMAHA AREA

CITY           SKY/WX    TMP DP  RH WIND       PRES   REMARKS
OMAHA EPPLEY   PTCLDY    76  71  85 SE8       29.90R
BLAIR          CLEAR     72  67  82 S5        29.91S
FREMONT        CLEAR     74  65  74 SE3       29.92R
MILLARD        CLEAR     77  71  82 SE5       29.91R
OFFUTT AFB     PTCLDY    71  70  97 E3        29.90R
PLATTSMOUTH    PTCLDY    75  72  92 SE5       29.92R
WAHOO          FAIR      71  66  87 SE3       29.92R
$$


USA.gov is the U.S. government's official web portal to all federal, state and local government web resources and services.